Location: Crescent
(42.8242°N, 73.7329°W)
Time: 18:00:24
(UTC+00:00)

Vanguard 1 Rocket - Pass Details

Date: 19 February 2026
Orbit: 653 x 4214 km, 34.3° (Epoch: 8 March)

Event Time Altitude Azimuth Distance (km) Brightness Sun altitude
Rises 17:37:54 0° 230° (SW) 3,940 11.3 35.7°
Reaches altitude 10° 17:40:13 10° 223° (SW) 3,266 11.2 35.6°
Maximum altitude 17:48:09 45° 153° (SSE) 2,448 10.8 35.3°
Drops below altitude 10° 18:02:59 10° 89° (E) 5,964 11.5 34.7°
Sets 18:09:02 0° 85° (E) 7,515 11.9 34.4°
